Location: Marcé
(47.5801°N, 0.3280°W)
Time: 02:37:45
(UTC+01:00)

Courier 1B - Pass Details

Date: 07 December 2021
Orbit: 962 x 1209 km, 28.3° (Epoch: 26 January)

Event Time Altitude Azimuth Distance (km) Brightness Sun altitude
Rises 17:31:44 0° 232° (SW) 4,071 13.2 -3.9°
Reaches altitude 10° 17:35:51 10° 213° (SSW) 3,075 11.3 -4.5°
Maximum altitude 17:40:12 16° 177° (S) 2,585 10.1 -5.2°
Drops below altitude 10° 17:44:26 10° 142° (SE) 2,980 9.9 -5.8°
Sets 17:48:19 0° 122° (ESE) 3,887 10.3 -6.4°
